EZY877 EGMC-EGJJ

Flight info

Callsign EZY877
Flight time N/A
Altitude 28000
Route EVNAS DCT LAM L10 BPK DCT SAXBI N27 HEN DCT COWLY Q41 SAM N63 LELNA
Aircraft A320/M-SDE3FGHIRWY/LB1

Departure

Time 2026-04-23 13:09
Airport London Southend Airport (EGMC)

Arrival

Time N/A
Airport Jersey Airport (EGJJ)
Time Latitude Longitude Altitude Speed Heading
2026-04-23 12:54 51.56927 0.70272 54 ft 0 kts 93°
2026-04-23 13:01 51.56928 0.70248 54 ft 2 kts 94°
2026-04-23 13:01 51.56927 0.70210 52 ft 4 kts 68°
2026-04-23 13:02 51.56912 0.70179 53 ft 4 kts 27°
2026-04-23 13:02 51.56901 0.70171 51 ft 1 kts 22°
2026-04-23 13:02 51.56901 0.70170 50 ft 0 kts 22°
2026-04-23 13:04 51.56912 0.70178 53 ft 7 kts 21°
2026-04-23 13:05 51.56968 0.70151 54 ft 11 kts 329°
2026-04-23 13:05 51.57036 0.70083 53 ft 11 kts 329°
2026-04-23 13:05 51.57096 0.70016 54 ft 11 kts 322°
2026-04-23 13:05 51.57152 0.69946 54 ft 10 kts 323°
2026-04-23 13:06 51.57231 0.69758 56 ft 16 kts 239°
2026-04-23 13:06 51.57111 0.69487 53 ft 38 kts 233°
2026-04-23 13:06 51.56951 0.69141 54 ft 39 kts 234°
2026-04-23 13:07 51.56798 0.68797 52 ft 37 kts 234°
2026-04-23 13:07 51.56658 0.68483 53 ft 32 kts 234°
2026-04-23 13:07 51.56547 0.68257 54 ft 13 kts 198°
2026-04-23 13:07 51.56514 0.68217 52 ft 8 kts 271°
2026-04-23 13:08 51.56551 0.68233 54 ft 11 kts 63°
2026-04-23 13:08 51.56645 0.68449 52 ft 62 kts 54°
2026-04-23 13:08 51.57033 0.69305 67 ft 123 kts 55°
2026-04-23 13:08 51.57582 0.70471 580 ft 135 kts 55°
2026-04-23 13:09 51.58160 0.71683 1309 ft 137 kts 55°
2026-04-23 13:09 51.59063 0.73328 1868 ft 166 kts 33°
2026-04-23 13:09 51.60253 0.73707 2289 ft 192 kts 355°
2026-04-23 13:09 51.61498 0.72619 2659 ft 225 kts 311°
2026-04-23 13:10 51.62046 0.71092 2906 ft 244 kts 295°
2026-04-23 13:10 51.62644 0.68371 3428 ft 268 kts 287°
2026-04-23 13:10 51.63157 0.65422 4277 ft 277 kts 285°
2026-04-23 13:10 51.63643 0.62427 5171 ft 283 kts 285°
2026-04-23 13:11 51.64234 0.59389 6069 ft 288 kts 298°
2026-04-23 13:11 51.65488 0.56900 6948 ft 288 kts 326°
2026-04-23 13:11 51.67238 0.55400 7879 ft 285 kts 340°
2026-04-23 13:11 51.69078 0.54205 8826 ft 286 kts 342°
2026-04-23 13:12 51.70938 0.53008 9731 ft 288 kts 342°
2026-04-23 13:12 51.72818 0.51788 10290 ft 292 kts 341°
2026-04-23 13:12 51.74714 0.50564 10698 ft 301 kts 341°
2026-04-23 13:12 51.76724 0.49213 10966 ft 327 kts 335°
2026-04-23 13:13 51.78550 0.46819 11330 ft 350 kts 310°
2026-04-23 13:13 51.79635 0.43250 11962 ft 363 kts 284°
2026-04-23 13:13 51.79708 0.39163 12675 ft 369 kts 263°
2026-04-23 13:13 51.79347 0.35029 13391 ft 374 kts 262°
2026-04-23 13:14 51.78957 0.30853 14109 ft 378 kts 262°
2026-04-23 13:14 51.78552 0.26629 14424 ft 382 kts 262°
2026-04-23 13:14 51.78139 0.22366 15071 ft 385 kts 262°
2026-04-23 13:14 51.77726 0.18083 15752 ft 388 kts 262°
2026-04-23 13:15 51.77314 0.13752 16413 ft 391 kts 262°
2026-04-23 13:15 51.76904 0.09398 17059 ft 395 kts 262°
2026-04-23 13:15 51.76486 0.04997 17702 ft 398 kts 262°
2026-04-23 13:15 51.76061 0.00560 18274 ft 402 kts 262°
2026-04-23 13:16 51.75631 -0.03901 18495 ft 402 kts 262°
2026-04-23 13:16 51.75202 -0.08361 18532 ft 402 kts 262°
2026-04-23 13:16 51.75014 -0.12856 18540 ft 401 kts 272°
2026-04-23 13:16 51.75101 -0.17353 18545 ft 401 kts 273°
2026-04-23 13:17 51.75182 -0.21847 18540 ft 401 kts 273°
2026-04-23 13:17 51.75254 -0.26341 18539 ft 400 kts 272°
2026-04-23 13:17 51.75320 -0.30825 18543 ft 400 kts 272°
2026-04-23 13:17 51.75385 -0.35323 18544 ft 400 kts 272°
2026-04-23 13:18 51.75451 -0.39789 18932 ft 404 kts 272°
2026-04-23 13:18 51.75518 -0.44336 19523 ft 406 kts 272°
2026-04-23 13:18 51.75585 -0.48896 20013 ft 408 kts 272°
2026-04-23 13:18 51.75651 -0.53475 20673 ft 405 kts 272°
2026-04-23 13:19 51.75540 -0.58043 21176 ft 412 kts 260°
2026-04-23 13:19 51.74596 -0.62420 21614 ft 417 kts 240°
2026-04-23 13:19 51.72834 -0.66122 22085 ft 419 kts 221°
2026-04-23 13:19 51.70437 -0.68766 22558 ft 419 kts 204°
2026-04-23 13:20 51.67761 -0.70657 23051 ft 420 kts 201°
2026-04-23 13:20 51.65089 -0.72459 23942 ft 413 kts 201°
2026-04-23 13:20 51.62422 -0.74248 24268 ft 419 kts 201°
2026-04-23 13:20 51.59730 -0.76178 24409 ft 427 kts 207°
2026-04-23 13:21 51.57092 -0.78539 24453 ft 440 kts 208°
2026-04-23 13:21 51.54396 -0.81008 24453 ft 453 kts 209°
2026-04-23 13:21 51.51714 -0.83495 24448 ft 464 kts 209°
2026-04-23 13:21 51.48887 -0.86122 24446 ft 475 kts 209°
2026-04-23 13:22 51.46001 -0.88794 24446 ft 484 kts 209°
2026-04-23 13:22 51.43055 -0.91510 24445 ft 492 kts 209°
2026-04-23 13:22 51.40071 -0.94243 24432 ft 496 kts 208°
2026-04-23 13:22 51.37067 -0.96984 24419 ft 499 kts 210°
2026-04-23 13:23 51.34083 -0.99699 24431 ft 502 kts 210°
2026-04-23 13:23 51.31005 -1.02499 24436 ft 504 kts 210°
2026-04-23 13:23 51.27955 -1.05278 24436 ft 505 kts 210°
2026-04-23 13:23 51.24937 -1.08021 24436 ft 505 kts 210°
2026-04-23 13:24 51.21878 -1.10791 24434 ft 505 kts 210°
2026-04-23 13:24 51.18820 -1.13557 24433 ft 505 kts 210°
2026-04-23 13:24 51.15762 -1.16324 24431 ft 505 kts 210°
2026-04-23 13:24 51.12707 -1.19087 24426 ft 505 kts 210°
2026-04-23 13:25 51.09648 -1.21845 24406 ft 505 kts 210°
2026-04-23 13:25 51.06588 -1.24597 24404 ft 502 kts 210°
2026-04-23 13:25 51.03604 -1.27272 24408 ft 490 kts 210°
2026-04-23 13:25 51.00630 -1.29937 24410 ft 492 kts 210°
2026-04-23 13:26 50.97639 -1.32614 24409 ft 493 kts 210°
2026-04-23 13:26 50.94651 -1.35274 24410 ft 493 kts 209°
2026-04-23 13:26 50.91618 -1.37843 24410 ft 493 kts 208°
2026-04-23 13:26 50.88560 -1.40300 24408 ft 493 kts 207°
2026-04-23 13:27 50.85477 -1.42694 24409 ft 495 kts 207°
2026-04-23 13:27 50.82369 -1.45081 24408 ft 496 kts 207°
2026-04-23 13:27 50.79266 -1.47474 24406 ft 497 kts 207°
2026-04-23 13:27 50.76165 -1.49894 24400 ft 497 kts 207°
2026-04-23 13:28 50.73076 -1.52334 24384 ft 497 kts 207°
2026-04-23 13:28 50.69992 -1.54790 24382 ft 497 kts 207°
2026-04-23 13:28 50.66906 -1.57255 24381 ft 497 kts 207°
2026-04-23 13:28 50.63828 -1.59707 24379 ft 496 kts 207°
2026-04-23 13:29 50.60731 -1.62158 24387 ft 497 kts 207°
2026-04-23 13:29 50.57642 -1.64588 24380 ft 497 kts 207°
2026-04-23 13:29 50.54548 -1.67016 24379 ft 494 kts 207°
2026-04-23 13:29 50.51514 -1.69395 24387 ft 483 kts 207°
2026-04-23 13:30 50.48516 -1.71743 24386 ft 481 kts 207°
2026-04-23 13:30 50.45564 -1.74050 24386 ft 480 kts 207°
2026-04-23 13:30 50.42573 -1.76383 24385 ft 480 kts 207°
2026-04-23 13:30 50.39584 -1.78712 24385 ft 480 kts 207°
2026-04-23 13:31 50.36590 -1.81043 24382 ft 480 kts 207°
2026-04-23 13:31 50.33594 -1.83378 24382 ft 480 kts 207°
2026-04-23 13:31 50.30607 -1.85701 24363 ft 475 kts 207°
2026-04-23 13:31 50.27714 -1.87942 24370 ft 454 kts 207°
2026-04-23 13:32 50.24927 -1.90102 24373 ft 442 kts 207°
2026-04-23 13:32 50.22191 -1.92221 24079 ft 436 kts 207°
2026-04-23 13:32 50.19492 -1.94313 23609 ft 430 kts 207°
2026-04-23 13:32 50.16827 -1.96380 23119 ft 426 kts 207°
2026-04-23 13:33 50.14176 -1.98428 22633 ft 424 kts 207°
2026-04-23 13:33 50.11542 -2.00459 22154 ft 420 kts 206°
2026-04-23 13:33 50.08933 -2.02463 21684 ft 417 kts 206°
2026-04-23 13:33 50.06331 -2.04457 21219 ft 416 kts 206°
2026-04-23 13:34 50.03744 -2.06435 20762 ft 413 kts 205°
2026-04-23 13:34 50.01177 -2.08397 20409 ft 408 kts 205°
2026-04-23 13:34 49.98593 -2.10228 20330 ft 408 kts 199°
2026-04-23 13:34 49.95875 -2.11460 20346 ft 407 kts 190°
2026-04-23 13:35 49.93116 -2.12401 20347 ft 405 kts 191°
2026-04-23 13:35 49.90355 -2.13346 20319 ft 406 kts 191°
2026-04-23 13:35 49.87624 -2.14283 20316 ft 408 kts 191°
2026-04-23 13:35 49.84856 -2.15234 20308 ft 407 kts 191°
2026-04-23 13:36 49.82099 -2.16181 20303 ft 405 kts 191°
2026-04-23 13:36 49.79336 -2.17122 20134 ft 405 kts 190°
2026-04-23 13:36 49.76565 -2.18062 19277 ft 412 kts 190°
2026-04-23 13:36 49.73744 -2.19015 18538 ft 415 kts 190°
2026-04-23 13:37 49.70948 -2.19961 17650 ft 408 kts 191°
2026-04-23 13:37 49.68221 -2.21002 16821 ft 398 kts 192°
2026-04-23 13:37 49.65610 -2.22143 16295 ft 382 kts 193°
2026-04-23 13:37 49.63061 -2.23320 15131 ft 384 kts 193°
2026-04-23 13:38 49.60547 -2.24505 14677 ft 367 kts 193°
2026-04-23 13:38 49.58223 -2.25603 14485 ft 343 kts 193°
2026-04-23 13:38 49.55919 -2.26669 13226 ft 351 kts 192°
2026-04-23 13:38 49.53535 -2.27739 11759 ft 362 kts 192°
2026-04-23 13:39 49.51084 -2.28817 10304 ft 371 kts 192°
2026-04-23 13:39 49.48637 -2.29892 9593 ft 354 kts 192°
2026-04-23 13:39 49.46369 -2.30901 9416 ft 325 kts 192°
2026-04-23 13:39 49.44283 -2.31832 9233 ft 300 kts 192°
2026-04-23 13:40 49.42317 -2.32704 8728 ft 290 kts 191°
2026-04-23 13:40 49.40393 -2.33549 8108 ft 285 kts 191°
2026-04-23 13:40 49.38477 -2.34387 7403 ft 283 kts 191°
2026-04-23 13:40 49.36618 -2.35202 6912 ft 274 kts 191°
2026-04-23 13:41 49.34816 -2.35988 6302 ft 270 kts 191°
2026-04-23 13:41 49.33002 -2.36780 5482 ft 273 kts 191°
2026-04-23 13:41 49.31198 -2.37574 4878 ft 265 kts 191°
2026-04-23 13:41 49.29449 -2.38344 3822 ft 262 kts 190°
2026-04-23 13:42 49.27809 -2.39079 3545 ft 228 kts 189°
2026-04-23 13:42 49.26361 -2.39731 3423 ft 207 kts 188°
2026-04-23 13:42 49.25061 -2.40316 3337 ft 182 kts 187°
2026-04-23 13:42 49.23883 -2.40838 2929 ft 177 kts 185°
2026-04-23 13:43 49.22724 -2.41064 2688 ft 156 kts 167°
2026-04-23 13:43 49.21742 -2.40787 2640 ft 134 kts 152°
2026-04-23 13:43 49.20934 -2.40185 2592 ft 127 kts 140°
2026-04-23 13:43 49.20274 -2.39308 2546 ft 126 kts 128°
2026-04-23 13:44 49.19780 -2.38190 2463 ft 128 kts 115°
2026-04-23 13:44 49.19495 -2.36909 2373 ft 128 kts 102°
2026-04-23 13:44 49.19447 -2.35568 2222 ft 129 kts 89°
2026-04-23 13:44 49.19560 -2.34222 2061 ft 127 kts 86°